Location: Newark
(13.6797°N, 8.5297°E)
Time: 22:35:54
(UTC+00:00)

Vanguard 2 Rocket - All Passes

Search period start: 18 January 2020 00:00
Search period end: 28 January 2020 00:00
Orbit: 554 x 3326 km, 32.9° (Epoch: 18 January)

Date Brightness Start Highest point End Pass type
(mag) Time Alt. Az. Time Alt. Az. Time Alt. Az.
18 Jan - 03:26:14 10° SW 03:30:09 68° SSE 03:35:20 10° ENE visible
18 Jan - 05:39:41 10° WNW 05:44:05 26° NNW 05:50:35 10° NE daylight
18 Jan - 07:54:14 10° NW 08:00:44 24° N 08:10:30 10° ENE daylight
18 Jan - 10:07:34 10° NW 10:18:38 44° NNE 10:35:50 10° E daylight
18 Jan - 12:21:23 10° WNW 12:36:57 87° NNE 12:57:43 10° ESE daylight
18 Jan - 14:38:27 10° WNW 14:55:44 44° SW 15:13:35 10° SSE daylight
18 Jan - 17:06:51 10° WSW 17:14:48 13° SW 17:22:09 10° SSW daylight
19 Jan - 02:27:38 10° SSW 02:31:05 29° SE 02:34:52 10° E visible
19 Jan - 04:40:05 10° W 04:44:04 32° NNW 04:49:44 10° NE visible
19 Jan - 06:54:49 10° NW 06:59:47 20° N 07:06:54 10° NE daylight
19 Jan - 09:08:13 10° NW 09:17:06 34° NNE 09:31:08 10° E daylight
19 Jan - 11:21:20 10° NW 11:34:51 71° NNE 11:55:00 10° ESE daylight
19 Jan - 13:36:36 10° WNW 13:53:22 58° SW 14:13:00 10° SE daylight
19 Jan - 15:58:54 10° W 16:12:24 22° SW 16:25:12 10° S daylight
20 Jan - 01:29:47 10° S 01:31:51 13° SE 01:33:51 10° ESE night (unlit)
20 Jan - 03:40:37 10° WSW 03:44:29 51° NNW 03:49:31 10° NE visible
20 Jan - 05:55:17 10° NW 05:59:12 19° N 06:04:32 10° NE daylight
20 Jan - 08:09:03 10° NW 08:15:55 26° NNE 08:26:22 10° ENE daylight
20 Jan - 10:21:43 10° NW 10:33:08 55° NNE 10:51:23 10° ESE daylight
20 Jan - 12:35:43 10° WNW 12:51:04 74° SW 13:11:36 10° SE daylight
20 Jan - 14:54:24 10° W 15:10:00 32° SW 15:26:06 10° SSE daylight
21 Jan - 02:41:19 10° SW 02:45:15 77° SSE 02:49:36 10° ENE visible
21 Jan - 04:55:32 10° WNW 04:58:57 20° NNW 05:03:25 10° NE visible
21 Jan - 07:10:01 10° NNW 07:15:02 19° NNE 07:22:07 10° NE daylight
21 Jan - 09:22:28 10° NW 09:31:49 41° NNE 09:47:07 10° E daylight
21 Jan - 11:35:30 10° WNW 11:49:01 89° NNE 12:09:22 10° SE daylight
21 Jan - 13:51:46 10° W 14:07:35 43° SW 14:25:57 10° SSE daylight
21 Jan - 16:19:03 10° WSW 16:27:26 14° SW 16:35:32 10° S daylight
22 Jan - 01:42:16 10° SSW 01:46:07 34° SSE 01:49:44 10° E night (unlit)
22 Jan - 03:55:40 10° WNW 03:59:04 25° NNW 04:03:16 10° NE visible
22 Jan - 06:10:55 10° NNW 06:14:24 15° N 06:18:53 10° NE daylight
22 Jan - 08:23:28 10° NW 08:30:51 30° NNE 08:42:30 10° E daylight
22 Jan - 10:35:49 10° NW 10:47:24 71° NNE 11:06:22 10° ESE daylight
22 Jan - 12:50:23 10° WNW 13:05:15 55° SW 13:24:57 10° SE daylight
22 Jan - 15:11:49 10° WSW 15:24:42 21° SW 15:37:54 10° S daylight
23 Jan - 00:43:34 10° SSW 00:46:45 17° SSE 00:49:31 10° ESE night (unlit)
23 Jan - 02:55:50 10° W 02:59:34 42° NNW 03:03:42 10° NE visible
23 Jan - 05:11:30 10° NW 05:14:01 14° N 05:17:02 10° NNE visible
23 Jan - 07:24:42 10° NNW 07:30:08 21° NNE 07:38:00 10° ENE daylight
23 Jan - 09:36:33 10° NW 09:46:13 54° NNE 10:02:40 10° ESE daylight
23 Jan - 11:49:52 10° WNW 12:03:12 70° SW 12:23:11 10° SE daylight
23 Jan - 14:07:50 10° W 14:22:05 30° SW 14:38:21 10° SSE daylight
23 Jan - 23:46:14 10° SSE 23:47:00 10° SSE 23:47:43 10° SE night (unlit)
24 Jan - 01:56:05 10° WSW 02:00:23 90° SSE 02:04:20 10° ENE night (unlit)
24 Jan - 04:11:28 10° NW 04:13:53 15° NNW 04:16:41 10° NNE visible
24 Jan - 06:26:06 10° NNW 06:29:35 15° NNE 06:34:04 10° NE daylight
24 Jan - 08:37:37 10° NW 08:45:26 38° NNE 08:58:29 10° E daylight
24 Jan - 10:50:01 10° WNW 11:01:33 88° SSW 11:20:42 10° SE daylight
24 Jan - 13:05:38 10° W 13:19:41 40° SW 13:37:47 10° SSE daylight
24 Jan - 15:32:04 10° SW 15:40:03 13° SSW 15:48:07 10° S daylight
25 Jan - 00:56:28 10° SW 01:01:11 42° SSE 01:04:56 10° ENE night (unlit)
25 Jan - 03:11:05 10° WNW 03:14:05 20° NNW 03:17:20 10° NNE visible
25 Jan - 05:27:42 10° N 05:29:11 11° N 05:30:48 10° NNE visible
25 Jan - 07:38:56 10° NNW 07:44:57 26° NNE 07:54:10 10° ENE daylight
25 Jan - 09:50:38 10° NW 10:00:24 72° NNE 10:17:36 10° ESE daylight
25 Jan - 12:04:37 10° WNW 12:17:32 52° SSW 12:36:26 10° SE daylight
25 Jan - 14:25:23 10° WSW 14:37:05 20° SSW 14:49:59 10° S daylight
25 Jan - 23:56:58 10° SSW 00:01:42 24° SSE 00:05:15 10° E night (unlit)
26 Jan - 02:10:43 10° W 02:14:40 36° NNW 02:18:21 10° NE night (unlit)
26 Jan - 06:40:33 10° NNW 06:44:36 17° NNE 06:50:02 10° ENE daylight
26 Jan - 08:51:38 10° NW 08:59:44 52° NNE 09:14:00 10° ESE daylight
26 Jan - 11:04:26 10° WNW 11:15:48 66° SSW 11:34:26 10° SE daylight
26 Jan - 13:21:49 10° W 13:34:26 28° SSW 13:50:01 10° SSE daylight
26 Jan - 22:57:40 10° S 23:01:47 16° SSE 23:05:03 10° ESE night (unlit)
27 Jan - 01:10:25 10° WSW 01:15:29 79° NNW 01:19:24 10° NE night (unlit)
27 Jan - 03:27:26 10° NW 03:28:50 11° NNW 03:30:16 10° N visible
27 Jan - 05:42:50 10° N 05:44:19 11° NNE 05:45:56 10° NNE daylight
27 Jan - 07:52:56 10° NW 07:59:26 35° NNE 08:10:09 10° E daylight
27 Jan - 10:04:50 10° WNW 10:14:35 85° SSW 10:31:53 10° SE daylight
27 Jan - 12:20:00 10° W 12:32:08 36° SSW 12:49:07 10° SSE daylight
27 Jan - 14:46:02 10° SW 14:52:45 12° SSW 14:59:46 10° S daylight
27 Jan - 21:59:01 10° S 22:01:29 11° SSE 22:03:39 10° SE visible
